Forside
METAR-TAF:

METAR-TAF

Lufthavne :

Wittman Regional Airport

Oshkosh, Wisconsin, USA

Breddekreds: 43-58-00N, længdekreds: 088-33-29W, højde: 246 m

Aktuelle vejr

Denne rapport blev lavet for 37 minutter siden, kl. 18:53 UTC
Vind 7 kt fra vest med vindstød på up til 14 kt
Temperatur 6°C
Fugtighed 36%
Tryk 1024 hPa
Sigt: 16.1 km
skyfri

METAR: KOSH 021853Z 26007G14KT 10SM CLR 06/M08 A3024 RMK AO2 SLP255 T00561078

Tid: 13:30 (19:30 UTC)


TAF: fraværende

Vejrobservationer og prognoser fra mere end 4000 lufthavne (METAR og TAF).

De gule og røde prikker repræsenterer de meteorologiske stationer.

Flyt musen over at se navnet på stationen.

Så klik over at se vejr observationer og prognoser.

At skifte det kort: Klik på de grønne knapper med et sort kors for at zoome ind; på den grønne knap med en bindestreg for at zoome ud; eller på de grønne pile for tilstødende kort.


METAR-TAF: